Regional Weather Roundup
Issued by NWS Charleston, SC

Current Version | Previous Version | Graphics & Text | Print | Product List | Glossary On
Versions: 1 2 3 4 5 6 7 8 9 10 11 12 13 14 15 16 17 18 19 20 21 22 23 24 25 26 27 28 29 30 31 32 33 34 35 36 37 38 39 40 41 42 43 44 45 46 47 48 49 50
000
ASUS42 KCHS 271313
RWRCHS

REGIONAL WEATHER ROUNDUP
NATIONAL WEATHER SERVICE CHARLESTON SC
900 AM EDT WED JUL 27 2016

NOTE: "FAIR" INDICATES FEW OR NO CLOUDS BELOW 12,000 FEET WITH NO
SIGNIFICANT WEATHER AND/OR OBSTRUCTIONS TO VISIBILITY.

NOT ALL STATIONS ARE QUALITY CONTROLLED. USE DATA WITH CAUTION...
ESPECIALLY DEWPOINT OBSERVATIONS.

SCZ027-030-031-034>040-042>050-271400-
...SOUTHEAST SOUTH CAROLINA...

CITY           SKY/WX    TMP DP  RH WIND       PRES   REMARKS
N CHARLESTON   MOSUNNY   85  73  67 W9        30.05R HX  91
WATERFRONT PRK   N/A     83  75  76 VRB3      30.02R HX  90
MOUNT PLEASANT FAIR      84  75  74 W7        30.05R HX  92
JOHNS ISLAND   FAIR      86  75  70 W8        30.05S HX  95
PINOPOLIS        N/A     81  75  83 SW8       29.97R
MONCKS CORNER  FAIR      81  72  74 W6        30.04S
SUMMERVILLE    FAIR      82  75  78 W5        30.06R
BEAUFORT MCAS  SUNNY     85  73  67 W10       30.06R HX  91
BEAUFORT ARPT  FAIR      82  73  74 W10       30.06R
HILTON HEAD IS SUNNY     82  73  74 SW6       30.07S
WALTERBORO     SUNNY     84  73  70 W8        30.06S HX  91
ALLENDALE      FAIR      82  75  78 VRB6      30.05S

...SOUTHERN MIDLANDS AND PEE DEE...

CITY           SKY/WX    TMP DP  RH WIND       PRES   REMARKS
GEORGETOWN     FAIR      81  73  78 W9        30.04S
KINGSTREE      FAIR      82  73  74 W6        30.03S
ORANGEBURG     SUNNY     83  74  74 W9        30.05S
BARNWELL       NOT AVBL
AIKEN          FAIR      81  72  74 W9        30.10R
MANNING        FAIR      81  72  74 SW5       30.04S
COLUMBIA       MOSUNNY   86  73  65 W6        30.03R HX  93
SUMTER         SUNNY     83  73  71 W9        30.01R
FLORENCE       SUNNY     85  74  69 W8        30.02S HX  92
MYRTLE BEACH   SUNNY     84  70  61 W9        30.04R
N MYRTLE BEACH SUNNY     85  75  72 W7        30.02R HX  93

$$

GAZ063-065-086>088-099>101-113>116-118-119-134>141-150-271400-
...SOUTHEAST GEORGIA...

CITY           SKY/WX    TMP DP  RH WIND       PRES   REMARKS
SAVANNAH ARPT  MOSUNNY   83  73  72 W9        30.08R
HUNTER AAF     SUNNY     83  77  81 W9        30.05S HX  92
FORT STEWART   SUNNY     82  73  73 W6        30.06R
STATESBORO     SUNNY     82  76  81 W8        30.07S HX  90
SYLVANIA       NOT AVBL
CLAXTON        FAIR      83  75  78 SW7       30.08S HX  90

...CSRA...CENTRAL AND FAR SOUTHEAST GEORGIA...

CITY           SKY/WX    TMP DP  RH WIND       PRES   REMARKS
THOMSON        NOT AVBL
AUGUSTA-BUSH   SUNNY     82  73  74 W8        30.05S
AUGUSTA-DANIEL SUNNY     83  73  72 W8        30.07R
SWAINSBORO     FAIR      81  73  78 W7        30.09R
VIDALIA        SUNNY     81  72  74 W6        30.09R
EASTMAN        FAIR      81  69  66 W3        30.11S
HAZLEHURST     FAIR      83  77  83 CALM      30.08R HX  92
ALMA           SUNNY     80  74  81 SW5       30.09R
WAYCROSS       SUNNY     83  78  83 CALM      30.09S HX  94
JESUP          FAIR      82  79  89 W3        30.09R HX  93
BAXLEY         FAIR      81  79  94 SW5       30.09R
BRUNSWICK      SUNNY     84  77  79 W6        30.10R HX  94
SAINT SIMONS   SUNNY     84  73  69 W6        30.09R HX  90

$$

SCZ027-028-034-036>038-045-046-048>050-GAZ119-141-271400-
...LAKE AND SUPPLEMENTAL COASTAL OBSERVATIONS...

STATION/POSITION TIME  TEMP    WIND        PRES    WAVE   SWELL
                       AIR SEA DIR/SP/G            HT/PER HT/PER/DIR
                 (UTC) (F)     (DEG/KT/KT) (MB)    (FT/S) (FT/S/D)
WINYAH BAY       NOT AVBL
LAKE MURRAY      NOT AVBL
ACE BASIN NERRS  NOT AVBL
FORT PULASKI     1200   80 87  260/ 10/ 13 1018.4R
SAPELO ISLAND    1200   80     260/  5     1018.0S

$$

ANZ835-935-AMZ111-154-330-350-352-354-370-450-454-472-271400-
...C-MAN AND BUOY OBSERVATIONS...

STATION/POSITION TIME  TEMP    WIND        PRES    WAVE   SWELL
                       AIR SEA DIR/SP/G            HT/PER HT/PER/DIR
                 (UTC) (F)     (DEG/KT/KT) (MB)    (FT/S) (FT/S/D)
BUOY 41004       1250   85 86  260/ 16/ 17 1016.9R   4/ 5
BUOY 41008       1250   83 86  280/ 12/ 14 1018.6R   2/ 3
FOLLY BEACH CMAN 1200   82     250/  5/  8 1017.4R
CAPERS NEARSHORE 1208   83 83  260/ 10/ 14 1017.1R
FRIPP NEARSHORE  1208   82 87  280/ 12/ 16 1017.2R


STATION/POSITION TIME  TEMP    WIND        PRES    WAVE   SWELL
                       AIR SEA DIR/SP/G            HT/PER HT/PER/DIR
                 (UTC) (F)     (DEG/KT/KT) (MB)    (FT/S) (FT/S/D)
5E ST. MARYS GA  1201      86                N/A     2/ 5
FRYING PAN BUOY  1200   85 85  250/ 16/ 21 1016.0S
BUOY 41025       1250   84 84  260/ 14/ 16 1015.1R   4/ 5   2/260/ 9
CAPE LOOKOUT NC  1200   83     250/ 15/ 17 1015.0R
BUOY 41002       1150   84 84  270/ 14/ 17 1017.5    3/ 5   2/150/ 8
BUOY 41010       1220   85 86  200/  6/  8 1019.2R
ST AUGUSTINE FL  1300   82 84   20/  3/  4 1020.3R


$$




USA.gov is the U.S. government's official web portal to all federal, state and local government web resources and services.